Location: Boca do Mato
(22.9085°S, 43.2930°W)
Time: 21:47:51
(UTC+00:00)

Cosmos 1674 - Pass Details

Date: 14 July 2020
Orbit: 493 x 519 km, 82.5° (Epoch: 10 August)

Event Time Altitude Azimuth Distance (km) Brightness Sun altitude
Rises 09:02:02 0° 335° (NNW) 2,561 6.2 -7.6°
Reaches altitude 10° 09:04:20 10° 323° (NW) 1,688 5.1 -7.1°
Maximum altitude 09:07:33 28° 262° (W) 959 3.5 -6.4°
Drops below altitude 10° 09:10:49 10° 201° (SSW) 1,714 4.9 -5.7°
Sets 09:13:10 0° 189° (S) 2,609 6.0 -5.2°
